Back to catalog

SKYSAT C4

AliveScienceSSO
NORAD 41771·PAYLOAD·🇺🇸 United States

Launched Sep 16, 2016 from Guiana Space Centre

Loading…

Next Passes (next 24 hours)

TLE

FreshSource: CelesTrak SupGP

Epoch: Sep 14, 2026, 14:49 UTC

1 41771C 16058B   26257.61777778  .00007969  00000+0  13690-3 0  2571
2 41771  96.9159 275.7943 0000191 100.4184 232.4955 15.51173866    11

Track SKYSAT C4 in real time with AllMySat

Download on the App Store